Regional Weather Roundup
Issued by NWS New Orleans/Baton Rouge, LA

Home | Current Version | Previous Version | Text Only | Print | Product List | Glossary On
Versions: 1 2 3 4 5 6 7 8 9 10 11 12 13 14 15 16 17 18 19 20 21 22 23 24 25 26 27
000
ASUS44 KLIX 270013
RWRLIX
NEW ORLEANS REGIONAL WEATHER ROUNDUP
NATIONAL WEATHER SERVICE NEW ORLEANS LA
700 PM CDT FRI MAY 26 2017

NOTE: "FAIR" INDICATES FEW OR NO CLOUDS BELOW 12,000 FEET WITH NO
      SIGNIFICANT WEATHER AND/OR OBSTRUCTIONS TO VISIBILITY.
      SKY/WX - SKY CONDITION AND SIGNIFICANT WEATHER.
      TMP - AIR TEMPERATURE.     DP    - DEWPOINT TEMPERATURE.
      RH  - RELATIVE HUMIDITY.   PRES  - PRESSURE.
      HI  - HEAT INDEX.          WCI   - WIND CHILL INDEX.

*  THESE STATIONS ARE NOT NWS OR FAA STATIONS AND ARE NOT UNDER
   NWS QUALITY CONTROL.

LAZ038-040-048-061>063-065>067-069-270100-
SOUTHEAST LOUISIANA

CITY           SKY/WX    TMP DP  RH WIND       PRES   REMARKS
N.O. INTL ARPT MOSUNNY   82  69  64 S13       29.98S
6HR MIN TEMP:  82; 6HR MAX TEMP:  85;

N.O. LAKEFRONT CLEAR     82  68  62 S13       29.99R
6HR MIN TEMP:  82; 6HR MAX TEMP:  87;

N.O. DOWNTOWN*   N/A     85  70  60 S10         N/A
6HR MIN TEMP:  85; 6HR MAX TEMP:  89;

RESERVE*       MOCLDY    85  70  60 S9        29.97S
6HR MIN TEMP:  85; 6HR MAX TEMP:  88;

SLIDELL        CLEAR     82  61  48 S9        29.98S
6HR MIN TEMP:  82; 6HR MAX TEMP:  87;

BATON ROUGE    SUNNY     83  68  60 S14       29.95F
6HR MIN TEMP:  83; 6HR MAX TEMP:  87;

BOOTHVILLE     CLEAR     78  72  81 S8        30.01S
6HR MIN TEMP:  78; 6HR MAX TEMP:  81;

BELLE CHASSE   PTCLDY    81  71  71 S9        29.99R
BOGALUSA*        N/A     83  59  43 S9        29.99S
6HR MIN TEMP:  83; 6HR MAX TEMP:  89;

GALLIANO*      CLOUDY    80  70  70 S5        30.00R
6HR MIN TEMP:  80; 6HR MAX TEMP:  84;

NEW ROADS*     MOCLDY    82  70  67 S10       29.95F
6HR MIN TEMP:  82; 6HR MAX TEMP:  84;

GONZALES*        N/A     83  69  62 SW6       29.96S
6HR MIN TEMP:  83; 6HR MAX TEMP:  86;

HAMMOND*       SUNNY     82  61  47 SE9       29.97S
HOUMA*         MOSUNNY   81  72  74 SE6       29.99S
PORT FOURCHON* CLOUDY    79  72  78 S7        30.00S

$$

MSZ070-080>082-270100-
SOUTHERN MISSISSIPPI

CITY           SKY/WX    TMP DP  RH WIND       PRES   REMARKS
MCCOMB         CLOUDY    83  61  47 S9        29.96S
6HR MIN TEMP:  83; 6HR MAX TEMP:  87;

GULFPORT       CLEAR     79  66  64 SE10      30.00S
6HR MIN TEMP:  79; 6HR MAX TEMP:  83;

BILOXI         CLEAR     78  67  68 S8        30.01R
6HR MIN TEMP:  78; 6HR MAX TEMP:  82;

PASCAGOULA     CLEAR     77  62  59 S5        30.02S
6HR MIN TEMP:  77; 6HR MAX TEMP:  83;


$$

COASTAL OBSERVATIONS
LAKE AND NEARSHORE STATIONS

STATION/POSITION TIME  TEMP    WIND        PRES    WAVE
                       AIR SEA DIR/SP/G            HT/PER
                 (UTC) (F)     (DEG/KT/KT) (MB)    (FT/S)
PASCAGOULA       2342   78     190/  4/  8 1016.2
WAVELAND YACHT   2342   77 81  150/ 10/ 11 1015.7
GRAND ISLE       2342   79 78  160/  5/  9 1015.8
SOUTHWEST PASS   2348          140/  5/  9   N/A
NEW CANAL        2342   82 81  200/ 10/ 16 1015.3
SHELL BEACH      2342   80 81  180/  8/ 11 1015.8

OFFSHORE STATIONS

STATION/POSITION TIME  TEMP    WIND        PRES    WAVE
                       AIR SEA DIR/SP/G            HT/PER
                 (UTC) (F)     (DEG/KT/KT) (MB)    (FT/S)
64 S DAUPHIN ISL 2350   76 79  160/  8/  8 1016.5    2/ 7

$$





USA.gov is the U.S. government's official web portal to all federal, state and local government web resources and services.